Home   Weather   Tucumán   Past weeks

Flag for Argentina Past Weather in Tucumán, Tucumán, Argentina — Yesterday and Last 2 Weeks

Now
73 °F

Clear.


Feels Like: 77 °F
Forecast: 49 / 88 °F
Wind: 3 mph from Southeast

Location: Tucuman Aerodrome

Current Time: Sep 26, 2016 at 12:49:31 PM

Latest Report: Sep 26, 2016 at 11:00 AM


Visibility: 4 mi

Pressure: 30.01 "Hg

Humidity: 47%

Dew Point: 52 °F

Location of TucumánLocation

Past Weather in Tucumán — Graph

°F

Tucumán Temperature Yesterday

Maximum temperature yesterday: 77 °F (at 3:00 PM)
Minimum temperature yesterday: 46 °F (at 2:00 AM)
Average temperature yesterday: 61 °F

High & Low Weather Summary for the Past Weeks

 TemperatureHumidityPressure
High95 °F (Sep 17, 5:00 PM)87% (Sep 24, 10:00 AM)30.42 "Hg (Sep 24, 10:00 AM)
Low39 °F (Sep 24, 10:00 AM)22% (Sep 14, 4:00 PM)29.47 "Hg (Sep 12, 2:00 PM)
Average68 °F51%30.03 "Hg
* Reported Sep 11 11:00 AM — Sep 26 11:00 AM, Tucumán, Weather by CustomWeather, © 2016

Note: Actual official high and low records may vary slightly from our data, if they occured in-between our weather recording intervals... More about our weather records

Advertising

Tucumán Weather History for the Previous 24 Hours

Scroll right to see more
 ConditionsComfort  
Time TempWeatherWind HumidityBarometerVisibility
11:00 AM
Mon, Sep 26
73 °FClear.3 mph47%30.01 "Hg4 mi
10:00 AM68 °FClear.3 mph56%30.04 "Hg5 mi
9:00 AM63 °FClear.9 mph64%30.04 "Hg6 mi
8:00 AM55 °FClear.7 mph77%30.01 "Hg6 mi
7:00 AM52 °FClear.5 mph77%29.98 "Hg5 mi
6:00 AM57 °FClear.9 mph67%29.95 "Hg5 mi
5:00 AM54 °FClear.7 mph72%29.95 "Hg5 mi
4:00 AM54 °FClear.5 mph77%29.95 "Hg5 mi
3:00 AM55 °FClear.7 mph63%29.95 "Hg5 mi
2:00 AM55 °FClear.7 mph67%29.98 "Hg5 mi
12:00 AM59 °FClear.5 mph63%30.01 "Hg5 mi
11:00 PM
Sun, Sep 25
59 °FClear.6 mph63%30.01 "Hg5 mi
10:00 PM64 °FClear.12 mph64%29.98 "Hg5 mi
9:00 PM66 °FClear.9 mph56%29.98 "Hg5 mi
8:00 PM68 °FClear.14 mph43%29.98 "Hg5 mi
7:00 PM73 °FClear.14 mph36%29.98 "Hg5 mi
6:00 PM77 °FClear.14 mph30%29.98 "Hg5 mi
5:00 PM77 °FClear.16 mph30%30.01 "Hg5 mi
4:00 PM77 °FClear.14 mph30%30.01 "Hg5 mi
3:00 PM77 °FClear.13 mph30%30.07 "Hg5 mi
2:00 PM75 °FClear.12 mph31%30.12 "Hg5 mi
1:00 PM72 °FClear.14 mph33%30.15 "Hg5 mi
12:00 PM68 °FClear.10 mph40%30.18 "Hg5 mi
Weather by CustomWeather, © 2016

See weather overviewHow to use our weather pages